Roanoke, VA

1:47 AM EDT on August 18, 2019 (GMT -0400)
Roanoke Regional-Woodrum

Weather History for KROA - July, 2019

Change the Weather History Date:

Sunday, July 21, 2019

  Actual Average Record
Temperature  
Mean Temperature 83 °F 77 °F  
Max Temperature 95 °F 87 °F 104 °F (1926)
Min Temperature 71 °F 67 °F 49 °F (1929)
Degree Days  
Heating Degree Days 0 0  
Month to date heating degree days 0 0  
Since 1 June heating degree days 0 11  
Since 1 July heating degree days 0 0  
Cooling Degree Days 18 12  
Month to date cooling degree days 352 247  
Year to date cooling degree days 876 609  
Since 1 June cooling degree days 597 493  
Growing Degree Days 34 (Base 50)    
Moisture  
Dew Point 70 °F    
Average Humidity 71    
Maximum Humidity 93    
Minimum Humidity 49    
Precipitation  
Precipitation 2.76 in 0.12 in 2.76 in (2019)
Month to date precipitation 3.12 2.74  
Year to date precipitation 25.99 23.27  
Snow  
Snow T in - - ()
Month to date snowfall T  
Since 1 June snowfall T  
Since 1 July snowfall T  
Snow Depth 0.00 in    
Sea Level Pressure  
Sea Level Pressure 29.99 in    
Wind  
Wind Speed 5 mph (NW)    
Max Wind Speed 33 mph    
Max Gust Speed 48 mph    
Visibility 10 miles    
Events Rain , Thunderstorm    
T = Trace of Precipitation, MM = Missing Value Source: NWS Daily Summary

Daily Weather History Graph

Daily Weather History Graph

Search for Another Location

Airport or City:

Astronomy

Jul. 21, 2019 Rise Set
Actual Time 6:15 AM EDT 8:36 PM EDT
Civil Twilight 5:45 AM EDT 9:06 PM EDT
Nautical Twilight 5:08 AM EDT 9:43 PM EDT
Astronomical Twilight 4:28 AM EDT 10:23 PM EDT
Moon 11:36 PM EDT (7/21) 10:29 AM EDT (7/21)
Length of Visible Light 15h 20m
Length of Day
14h 21m
Waning Gibbous, 80% of the Moon is Illuminated
Jul 21
Waning Gibbous
Jul 24
Last Quarter
Jul 31
New
Aug 7
First Quarter
Aug 15
Full

Hourly Weather History & Observations

Time (EDT) Temp. Heat Index Dew Point Humidity Pressure Visibility Wind Dir Wind Speed Gust Speed Precip Events Conditions
12:54 AM 82.0 °F 86.3 °F 71.1 °F 69% 29.96 in 10.0 mi WNW 4.6 mph - N/A   Clear
1:54 AM 81.0 °F 84.4 °F 70.0 °F 69% 29.97 in 10.0 mi WNW 4.6 mph - N/A   Clear
2:54 AM 80.1 °F 83.2 °F 70.0 °F 71% 29.96 in 10.0 mi West 8.1 mph - N/A   Clear
3:54 AM 80.1 °F 83.2 °F 70.0 °F 71% 29.95 in 10.0 mi West 6.9 mph - N/A   Clear
4:54 AM 78.1 °F - 70.0 °F 76% 29.95 in 10.0 mi West 6.9 mph - N/A   Partly Cloudy
5:54 AM 78.1 °F - 70.0 °F 76% 29.96 in 10.0 mi West 5.8 mph - N/A   Clear
6:54 AM 78.1 °F - 71.1 °F 79% 29.97 in 10.0 mi WNW 6.9 mph - N/A   Clear
7:54 AM 80.1 °F 83.6 °F 71.1 °F 74% 29.98 in 10.0 mi West 6.9 mph - N/A   Clear
8:54 AM 84.0 °F 89.0 °F 71.1 °F 65% 29.98 in 10.0 mi WSW 5.8 mph - N/A   Clear
9:54 AM 87.1 °F 93.6 °F 72.0 °F 61% 29.98 in 10.0 mi West 6.9 mph - N/A   Clear
10:54 AM 90.0 °F 96.9 °F 72.0 °F 55% 29.98 in 10.0 mi West 8.1 mph - N/A   Partly Cloudy
11:54 AM 93.9 °F 102.1 °F 72.0 °F 49% 29.97 in 10.0 mi WNW 4.6 mph - N/A   Scattered Clouds
12:54 PM 91.0 °F 96.6 °F 70.0 °F 50% 29.96 in 10.0 mi NE 9.2 mph - N/A   Mostly Cloudy
12:59 PM 91.0 °F 96.6 °F 70.0 °F 50% 30.00 in 10.0 mi North 12.7 mph - N/A Thunderstorm Thunderstorm
1:38 PM 73.0 °F - 64.9 °F 76% 30.11 in 1.0 mi WNW 21.9 mph 47.2 mph 1.53 in Rain , Thunderstorm Heavy Thunderstorms with Small Hail
1:44 PM 75.0 °F - 66.0 °F 73% 30.08 in 0.5 mi NW 17.3 mph 40.3 mph 2.09 in Rain , Thunderstorm Heavy Thunderstorms and Rain
1:51 PM 73.4 °F - 68.0 °F 83% 30.05 in 10.0 mi NNW 12.7 mph 23.0 mph 2.53 in Rain , Thunderstorm Heavy Thunderstorms and Rain
1:54 PM 73.0 °F - 66.9 °F 81% 30.02 in 10.0 mi NNW 12.7 mph - 2.62 in Rain , Thunderstorm Heavy Thunderstorms and Rain
2:25 PM 73.0 °F - 70.0 °F 90% 30.05 in 10.0 mi NW 5.8 mph - 0.06 in Rain , Thunderstorm Light Thunderstorms and Rain
2:54 PM 73.0 °F - 69.1 °F 87% 29.99 in 10.0 mi NNW 4.6 mph - 0.06 in Thunderstorm Thunderstorm
3:32 PM 73.0 °F - 70.0 °F 90% 30.04 in 10.0 mi East 6.9 mph - 0.02 in Rain Light Rain
3:54 PM 73.0 °F - 71.1 °F 93% 30.00 in 10.0 mi North 5.8 mph - 0.04 in Rain Light Rain
4:54 PM 73.0 °F - 69.1 °F 87% 29.98 in 10.0 mi Calm Calm - 0.04 in Rain Light Rain
5:54 PM 75.0 °F - 72.0 °F 90% 29.97 in 10.0 mi NNW 3.5 mph - 0.00 in   Overcast
6:54 PM 75.0 °F - 71.1 °F 87% 29.99 in 10.0 mi Calm Calm - N/A   Overcast
7:54 PM 75.0 °F - 71.1 °F 87% 29.97 in 10.0 mi ENE 3.5 mph - N/A   Mostly Cloudy
8:54 PM 75.0 °F - 72.0 °F 90% 29.97 in 10.0 mi Calm Calm - N/A   Mostly Cloudy
9:54 PM 73.0 °F - 71.1 °F 93% 29.96 in 10.0 mi Calm Calm - N/A   Mostly Cloudy
10:54 PM 73.9 °F - 71.1 °F 91% 29.97 in 10.0 mi NNE 4.6 mph - N/A   Mostly Cloudy
11:36 PM 73.0 °F - 70.0 °F 90% 30.01 in 10.0 mi NE 4.6 mph - N/A Thunderstorm Clear
11:54 PM 73.0 °F - 70.0 °F 90% 29.96 in 10.0 mi NE 3.5 mph - N/A   Partly Cloudy